STARLINK-5530, 56494

Orbit data source: Space-Track

STARLINK-5530, 56494 is a payload satellite owned by SpaceX/Seattle (US) in LEO that was launched on Wed, 10 May 2023 UTC via an FALCON 9 launch vehicle from the Air Force Western Test Range (AFWTR). Payload-class satellites include a variety of spacecraft equipped with specific instruments for various scientific and technological missions. These include communications satellites like Starlink; space stations such as the ISS; scientific satellites like the Hubble; Earth observation satellites from companies like Planet Labs, Umbra, and HawkEye 360; GPS; miniature CubeSats for education and research; and military/defense satellites.

Loading next visibility...
Identifier
56494, 2023-064AY
Orbit
LEO
Country
Flag of USUS
Related business
Manufacturer
SpaceX/Seattle
Mission
Operational Commercial Communications
Bus & Motor
STARLINK, Unknown motor
Mass
305 kg wet, ~290 kg dry
Launch date (UTC)
2023-05-10 (3 years ago)
Launch vehicle
FALCON 9
Launch site
Air Force Western Test Range (AFWTR)
Object type
Payload
Rocket body
Debris
Shape & HBR
Box + 1 Pan, 10.1 m
Radar Cross Section
11.087 m², Large (>1 m²)

Expand to show TLE details & history
Last TLE update: 2 days ago

TLE from 2 days ago
0 STARLINK-5530
1 56494U 23064AY  26171.43673728  .00000316  00000-0  34246-4 0  9993
2 56494  69.9989 205.3646 0003637 267.9949  92.0794 14.98329861171619
Epoch: 2026-06-20T10:28Z
TLE epoch observation values (Epoch: 2026-06-20T10:28:54.100Z)
Latitude
-0.00001°
Longitude
139.4878°
Altitude
574.573 km
Speed
7.574 km/s
True Right ascension
13h 41m 27s
True Declination
0° 00' 00"
Sunlit
Object was in full shadow at epoch
Visualization orbit readout
Latitude
Unknown
Longitude
Unknown
Altitude
Unknown
Speed
Unknown
Apparent Right ascension
Unknown
Apparent Declination
Unknown
Sunlit
N/A
Visualization observer readout
Local Sidereal Time
21:31:42
Azimuth
Unknown
Elevation
Unknown
Doppler factor
Unknown
Orbital elements
Apogee altitude
572.532 km
Perigee altitude
567.478 km
Semi-major axis
6,948.142 km
Eccentricity
0.00036
Inclination
69.9989°
RAAN
205.3646°
Arg. of periapsis
267.9949°
True anomaly
92.12105°
Mean anomaly
92.0794°
Eccentric anomaly
92.10022°
Mean motion
3.74749 °/min
Orbital period
96.06 mins
BSTAR
0.000034246
Loading maneuver chart data...
Computing Atmospheric mass density...
Loading historical data...
Loading historical data...
Loading historical data...
Loading historical data...
Loading historical data...
Loading historical data...
Loading historical data...

Documentation

Showing up to 5 results
|